TimeCDT,TemperatureF,Dew PointF,Humidity,Sea Level PressureIn,VisibilityMPH,Wind Direction,Wind SpeedMPH,Gust SpeedMPH,PrecipitationIn,Events,Conditions,WindDirDegrees,DateUTC
12:53 AM,43.0,21.0,42,30.11,10.0,East,3.5,-,N/A,,Clear,100,2013-03-21 05:53:00
1:53 AM,41.0,26.1,55,30.08,10.0,ENE,6.9,-,N/A,,Clear,70,2013-03-21 06:53:00
2:53 AM,42.1,21.0,43,30.06,10.0,East,4.6,-,N/A,,Clear,100,2013-03-21 07:53:00
3:53 AM,39.0,25.0,57,30.03,10.0,East,8.1,-,N/A,,Clear,80,2013-03-21 08:53:00
4:53 AM,39.9,21.9,49,30.02,10.0,East,9.2,-,N/A,,Clear,80,2013-03-21 09:53:00
5:53 AM,39.0,21.9,50,30.02,10.0,ENE,10.4,-,N/A,,Clear,70,2013-03-21 10:53:00
6:53 AM,39.0,21.0,49,30.02,10.0,East,10.4,-,N/A,,Scattered Clouds,80,2013-03-21 11:53:00
7:53 AM,39.0,21.0,49,30.02,10.0,East,8.1,-,N/A,,Mostly Cloudy,90,2013-03-21 12:53:00
8:53 AM,41.0,19.0,41,30.03,10.0,East,10.4,-,N/A,,Partly Cloudy,100,2013-03-21 13:53:00
9:53 AM,43.0,16.0,34,30.02,10.0,ESE,11.5,23.0,N/A,,Overcast,110,2013-03-21 14:53:00
10:53 AM,44.1,14.0,30,30.01,10.0,ESE,13.8,21.9,N/A,,Overcast,110,2013-03-21 15:53:00
11:53 AM,44.1,15.1,31,29.98,10.0,East,12.7,-,0.00,,Overcast,100,2013-03-21 16:53:00
12:53 PM,43.0,19.9,40,29.96,10.0,ESE,13.8,-,0.00,Rain,Light Rain,110,2013-03-21 17:53:00
1:53 PM,42.1,25.0,51,29.91,10.0,East,12.7,-,0.02,Rain,Light Rain,90,2013-03-21 18:53:00
2:53 PM,41.0,28.9,62,29.88,7.0,East,12.7,-,0.02,Rain,Light Rain,100,2013-03-21 19:53:00
3:53 PM,39.0,32.0,76,29.85,5.0,East,15.0,-,0.07,Rain,Light Rain,80,2013-03-21 20:53:00
4:53 PM,39.0,33.1,79,29.83,10.0,East,13.8,-,0.02,,Overcast,80,2013-03-21 21:53:00
5:53 PM,39.0,33.1,79,29.82,8.0,East,13.8,-,0.00,Rain,Light Rain,90,2013-03-21 22:53:00
6:53 PM,39.0,35.1,86,29.81,6.0,East,13.8,-,0.08,Rain,Light Rain,80,2013-03-21 23:53:00
7:46 PM,39.2,35.6,87,29.82,5.0,ENE,13.8,-,0.05,Rain,Light Rain,70,2013-03-22 00:46:00
7:53 PM,39.0,35.1,86,29.82,7.0,East,15.0,-,0.05,Rain,Light Rain,80,2013-03-22 00:53:00
8:53 PM,39.0,35.1,86,29.84,8.0,East,12.7,-,0.01,,Overcast,80,2013-03-22 01:53:00
9:53 PM,37.9,36.0,93,29.85,7.0,East,13.8,20.7,0.01,Rain,Light Rain,90,2013-03-22 02:53:00
10:53 PM,37.9,-9999,N/A,29.85,10.0,East,16.1,-,0.01,,Overcast,80,2013-03-22 03:53:00
11:53 PM,37.9,-9999,N/A,29.85,10.0,East,12.7,-,N/A,,Overcast,80,2013-03-22 04:53:00